Theta_e
329 330 329 327 324 322 327 328 326 328 328 329 329 327 329 333 335 334 335 335 333 334 334 333 335 334 333 333 331 331 330 329 327 317 320 328 324 318 316 314 327 328 323 322 315 315 316 317 326
330 330 329 326 322 327 329 327 330 329 328 333 333 333 333 333 334 334 334 335 333 334 334 333 335 334 333 331 333 334 331 329 328 319 321 329 328 324 316 314 324 320 320 314 311 313 317 324 324
330 330 329 318 319 325 328 327 328 328 329 330 330 334 335 334 333 333 334 333 334 334 334 333 334 333 332 330 329 330 329 329 328 321 322 330 329 326 319 315 325 320 315 311 311 314 319 323 325
330 330 327 324 329 323 323 326 328 330 331 331 332 333 335 335 333 333 334 335 336 334 334 333 334 332 331 329 329 330 330 329 326 320 319 329 329 326 320 316 319 322 312 310 311 313 317 323 324
330 329 325 327 329 326 320 324 329 329 329 331 331 333 334 333 334 334 335 335 336 334 333 333 333 333 332 330 329 330 330 324 321 316 319 326 327 326 324 321 317 321 311 311 311 312 313 320 322
328 327 326 329 329 326 322 323 325 327 329 329 331 333 334 334 334 335 337 336 336 335 333 333 333 332 332 331 328 331 330 326 320 316 312 315 322 327 327 319 314 314 311 311 311 311 313 315 317
325 323 327 329 329 327 324 326 325 326 329 329 329 333 335 334 332 334 336 337 337 336 333 333 333 331 330 328 329 331 330 329 321 314 313 312 321 327 326 324 317 312 311 311 311 311 312 313 318
327 323 328 327 328 329 323 326 326 327 327 330 330 329 331 333 330 335 337 337 337 336 334 333 332 330 327 326 328 330 330 328 323 311 312 312 315 324 326 324 316 312 311 311 311 311 312 313 316
326 322 324 327 327 324 323 321 325 326 329 330 329 330 330 333 329 334 336 337 336 336 335 334 333 331 327 324 327 329 330 329 325 318 311 310 314 321 326 319 319 314 312 312 311 311 312 312 315
324 320 322 322 321 324 324 325 324 323 324 326 328 327 328 330 330 329 332 334 336 335 336 335 335 333 327 325 326 328 328 329 325 320 315 311 311 313 316 315 316 314 312 312 312 312 312 312 313
324 322 320 323 324 326 325 324 324 323 322 324 326 326 327 329 332 331 330 330 330 332 335 334 333 333 330 325 324 326 328 327 326 323 317 314 312 311 313 315 314 315 312 312 312 312 312 312 312
325 325 325 325 325 325 325 325 324 325 325 325 325 324 324 328 330 330 330 329 328 330 331 333 332 332 334 331 325 325 326 326 325 324 320 318 314 311 311 312 313 314 315 313 313 313 313 312 312
321 321 323 323 323 323 324 324 324 324 325 325 325 324 324 324 325 328 330 331 329 328 328 330 332 332 332 332 330 327 326 325 324 324 322 318 316 314 311 312 313 313 315 315 314 313 313 313 313
321 322 322 323 322 322 321 322 323 324 324 325 325 325 324 325 324 326 327 328 329 328 327 329 331 332 333 331 328 331 329 325 324 322 321 320 315 314 314 312 313 314 314 315 314 314 314 313 313
322 323 320 321 322 322 321 320 319 322 322 322 322 322 322 321 323 325 325 325 327 327 327 328 329 331 332 333 331 327 330 329 327 327 323 321 318 315 313 312 313 314 314 314 315 315 314 314 314
321 319 323 320 321 321 321 322 319 321 321 321 321 321 322 322 322 322 322 324 325 325 325 326 328 329 330 331 331 331 326 330 330 329 327 325 319 317 315 313 312 313 314 314 314 315 314 314 314
320 320 320 321 319 319 318 320 319 320 320 320 320 321 321 322 322 322 322 321 321 323 325 324 324 327 328 329 331 332 331 324 328 329 329 327 324 319 318 317 314 313 314 314 314 313 314 314 315
320 319 320 319 319 318 318 319 316 320 320 320 320 321 320 321 322 322 322 323 323 323 322 321 325 325 326 329 331 333 333 332 323 326 329 329 327 322 320 319 319 317 315 313 313 314 314 314 314
319 316 317 319 317 320 318 318 317 319 319 318 319 320 320 321 321 322 322 321 321 321 322 323 322 322 325 328 330 332 331 331 331 324 327 328 328 326 322 321 319 319 319 316 314 313 314 315 315
320 320 319 319 320 320 321 320 318 316 317 318 318 319 319 319 319 318 318 320 320 320 321 322 323 320 321 324 327 329 329 330 330 330 325 327 328 328 325 323 322 320 319 320 316 314 315 314 315
318 320 317 318 318 317 318 319 317 316 316 317 317 317 317 317 316 317 317 317 319 319 320 321 322 322 321 320 323 329 331 331 331 330 329 323 326 328 328 326 324 323 321 319 319 315 315 314 313
319 316 317 318 320 320 317 320 316 314 312 312 315 316 316 316 316 316 316 317 316 318 319 319 320 321 322 322 321 323 328 330 329 328 328 327 325 326 328 328 326 325 324 321 320 319 314 316 315
317 315 316 316 318 318 317 320 316 314 314 313 314 315 315 315 315 315 315 316 318 317 319 319 319 320 320 321 321 322 324 328 330 330 329 328 327 326 326 327 328 327 326 325 322 320 317 315 315
313 315 314 315 316 319 315 318 315 312 312 311 312 314 314 314 314 314 315 316 317 318 318 319 320 320 320 321 321 321 322 324 328 330 330 329 328 328 327 326 325 327 328 328 326 324 321 317 316
315 315 314 310 317 313 312 314 315 313 311 311 311 314 314 314 314 313 313 314 316 317 318 318 319 319 320 320 320 321 322 323 325 328 330 330 329 329 328 328 328 327 326 327 328 327 325 323 319
313 315 315 313 310 310 311 314 313 311 313 313 313 312 313 313 313 313 311 311 312 313 316 318 318 318 318 318 318 319 322 324 326 328 330 330 330 330 330 329 330 329 328 327 327 327 327 327 324
311 315 312 310 301 308 310 309 308 309 309 309 309 311 312 312 311 310 309 309 311 312 313 313 313 314 316 318 323 324 324 325 327 328 328 329 330 330 330 330 330 330 329 329 328 327 327 327 327
311 310 313 311 313 313 312 310 310 308 311 308 306 311 311 311 309 308 309 309 310 312 313 314 314 315 314 314 314 314 319 326 327 328 328 329 329 330 330 330 330 330 330 329 329 329 327 326 326
312 313 312 310 308 308 307 308 306 308 307 307 308 310 310 309 308 307 307 308 308 309 310 311 311 312 312 312 313 314 313 313 315 322 324 325 327 328 329 330 330 330 330 330 329 329 329 328 327
311 312 312 312 308 310 310 309 306 307 306 307 308 309 307 306 306 306 306 306 306 307 306 307 308 308 308 309 310 311 312 313 314 313 313 318 322 323 326 327 328 329 329 329 329 329 329 329 328
Wind_Speed
14 10 12 4 4 5 1 1 2 2 1 2 2 3 5 4 3 3 8 13 12 15 16 14 13 14 14 11 8 5 4 3 2 4 7 6 8 8 6 6 15 13 12 11 11 12 12 12 14
15 9 5 3 5 4 4 3 2 1 4 12 9 6 2 1 3 5 13 14 10 13 15 14 14 15 13 11 8 5 1 1 1 1 10 8 4 3 6 8 12 12 11 10 10 12 13 16 15
10 8 5 4 3 3 3 2 2 2 5 0 2 3 1 1 3 4 7 16 14 13 14 13 15 14 12 10 7 5 4 3 3 2 12 9 5 2 3 9 10 11 9 10 10 11 13 14 14
10 4 6 5 2 0 2 3 2 0 1 1 4 3 1 2 3 5 7 16 14 14 15 14 15 13 12 9 6 5 5 4 5 4 12 14 8 4 2 7 8 11 9 9 9 9 10 12 11
6 4 4 4 2 4 2 1 6 1 1 3 1 2 2 3 4 5 9 14 13 14 16 16 15 13 12 10 8 7 5 4 4 6 11 18 11 6 4 9 9 10 9 8 8 8 8 11 9
4 3 4 2 3 5 4 1 2 2 1 3 2 4 1 3 5 6 8 11 10 12 17 17 15 13 13 11 10 9 7 4 4 6 10 14 12 10 7 7 6 9 8 8 9 8 8 8 7
4 3 4 2 2 4 4 3 2 1 1 2 3 3 2 3 4 5 8 10 10 11 17 18 17 15 15 13 12 10 8 6 5 7 10 12 14 12 9 7 6 9 8 8 8 8 8 8 7
2 4 3 1 1 1 6 3 2 2 2 2 2 1 1 3 6 7 11 11 12 13 14 17 17 17 17 16 14 13 11 8 7 8 11 13 16 13 11 11 8 8 9 9 9 8 7 8 8
1 4 2 3 3 1 7 5 4 2 1 1 2 1 2 3 8 12 15 16 16 17 16 16 17 19 19 17 16 15 14 12 10 10 10 11 15 15 14 12 12 12 12 9 8 8 8 8 8
2 3 7 3 3 1 3 5 4 2 3 2 2 2 3 3 11 13 17 20 21 21 21 20 19 19 21 20 20 19 17 16 14 12 11 12 13 15 16 13 15 14 14 11 10 10 9 9 10
1 4 4 3 3 2 5 5 3 2 2 3 0 4 4 5 10 14 16 19 21 22 23 21 20 20 21 24 23 23 21 19 18 16 14 14 15 16 17 17 17 17 17 15 14 12 11 11 11
2 6 6 1 6 2 5 3 2 8 9 10 7 10 9 10 12 14 16 18 21 24 26 24 22 22 22 24 26 26 26 24 22 20 18 18 18 19 19 19 19 19 17 16 15 14 13 13 13
3 4 7 6 5 3 3 8 8 15 13 13 16 13 12 15 17 18 20 21 22 24 26 27 27 26 23 24 26 27 29 28 26 24 22 21 21 21 21 21 22 21 21 19 18 17 16 15 15
2 4 7 6 3 5 5 8 5 10 7 10 17 18 20 22 21 21 23 26 26 26 27 30 30 30 29 27 27 30 30 29 28 26 26 24 22 22 24 23 24 24 23 21 20 19 18 17 17
2 3 6 5 5 3 4 7 8 25 17 18 20 23 21 22 24 26 25 26 27 28 28 31 32 32 33 34 32 28 31 31 31 30 28 27 26 24 25 26 26 25 23 23 24 23 22 22 21
3 3 3 3 6 6 4 13 9 14 19 21 22 24 27 26 26 28 29 29 27 28 30 31 33 36 37 38 37 35 30 33 34 34 33 31 30 28 26 29 29 27 25 25 27 26 26 25 24
4 3 4 5 4 4 6 1 4 6 18 25 29 29 30 32 32 27 25 25 26 31 33 35 35 36 37 40 42 40 37 32 35 36 37 36 34 32 31 30 30 28 28 28 28 29 29 28 26
9 6 0 5 3 3 10 15 7 20 18 21 29 33 33 32 33 34 33 34 35 33 30 34 40 40 40 41 44 45 45 42 35 38 40 38 37 36 35 34 32 30 31 31 33 32 31 31 28
3 3 5 3 5 3 7 12 10 18 24 28 33 38 40 40 36 35 35 36 36 36 40 39 38 40 42 45 46 47 48 46 46 39 41 40 39 40 39 38 35 34 35 35 35 35 34 34 31
7 9 4 5 4 3 12 19 13 9 16 30 33 34 39 37 33 33 34 32 31 34 37 40 40 39 42 45 48 49 47 49 49 47 40 41 43 42 42 41 41 38 38 38 38 38 38 37 34
6 11 5 7 0 4 6 22 13 15 19 24 25 29 33 35 37 37 35 35 29 33 29 30 34 41 42 41 44 49 49 51 51 51 47 37 46 46 46 45 44 42 40 42 42 40 41 41 39
12 6 6 5 3 7 6 11 3 5 10 9 22 28 31 34 33 34 36 35 39 33 31 30 31 34 41 42 47 49 53 54 53 51 49 43 41 47 47 47 48 47 45 45 46 43 43 42 45
4 6 8 6 5 2 11 6 1 2 7 14 15 21 22 26 32 34 34 32 32 31 25 32 32 30 30 37 45 48 50 53 53 53 52 49 44 44 45 49 49 51 50 49 48 48 47 46 47
5 4 2 2 3 8 11 8 20 6 7 6 5 24 27 31 26 29 28 27 20 21 26 27 26 27 25 27 37 44 48 49 51 54 54 52 50 46 44 46 48 51 53 53 52 51 51 49 50
5 5 2 2 6 8 3 7 18 6 9 10 11 23 21 17 25 32 35 34 27 20 20 19 19 18 20 26 33 40 44 48 50 52 55 55 55 53 49 45 48 48 51 53 54 55 54 53 53
8 11 7 5 4 4 3 6 8 10 18 15 10 8 9 23 27 28 36 35 32 30 24 18 17 17 17 22 27 33 38 43 49 51 52 55 56 57 54 50 47 45 47 49 53 56 57 56 56
6 10 13 3 1 1 4 7 11 11 15 8 5 7 17 22 26 31 36 33 32 28 27 28 23 21 17 15 21 29 31 36 43 47 50 51 53 54 53 51 50 46 42 46 48 51 55 57 57
8 8 2 4 6 10 5 5 8 6 2 5 6 14 22 25 30 30 27 28 25 22 20 18 21 22 20 18 18 19 23 30 39 41 45 48 49 51 51 52 51 48 46 45 46 48 50 53 56
7 7 4 4 4 4 2 6 8 11 5 3 2 12 15 18 22 22 21 21 22 22 22 21 20 20 20 21 21 19 17 18 20 31 38 39 42 46 51 52 53 52 50 48 48 47 48 52 53
18 17 15 7 6 3 3 10 6 7 5 3 5 12 12 13 17 19 22 22 24 25 29 27 26 25 26 26 26 26 23 23 23 24 26 33 39 41 46 49 51 52 52 50 50 49 49 52 54
Wind_Direction
359 343 351 355 52 62 26 286 287 128 52 49 80 133 148 103 154 199 149 160 159 170 165 165 163 161 158 163 158 153 146 111 61 128 130 118 115 130 144 136 119 124 116 112 112 104 102 107 97
359 360 0 41 78 65 294 290 151 261 122 112 92 82 24 84 148 154 154 166 166 180 176 172 170 168 169 168 158 155 167 39 51 68 139 137 147 116 137 140 128 126 118 108 108 109 107 104 98
356 10 32 80 92 140 184 239 258 60 127 274 80 49 90 335 209 184 157 167 168 184 187 180 175 177 177 176 178 187 221 261 251 267 147 150 197 161 124 139 144 127 120 118 119 116 120 118 109
2 29 53 76 66 260 229 210 208 82 97 53 119 37 21 251 274 178 188 176 173 191 190 191 186 189 193 195 202 210 223 253 259 222 164 158 193 195 136 150 158 139 132 130 134 134 134 128 125
16 39 51 80 354 293 251 254 164 213 212 89 127 234 333 117 213 211 186 182 188 190 197 199 198 203 205 208 211 210 217 229 241 225 184 177 173 191 184 176 169 155 147 144 140 137 138 141 138
52 62 57 89 310 289 281 224 164 228 215 95 97 137 248 249 243 238 217 191 194 209 207 205 210 214 214 216 214 216 214 214 250 226 210 178 177 195 204 218 185 167 165 155 145 152 152 156 151
87 75 169 163 268 359 318 17 37 266 207 84 143 122 296 193 222 227 213 208 218 227 217 215 219 219 220 221 216 219 223 226 238 213 207 192 185 192 204 222 213 178 176 169 162 163 166 167 164
70 90 118 259 181 84 336 357 59 98 235 130 182 190 285 215 221 199 199 219 235 241 236 230 225 225 225 224 222 221 225 227 236 219 210 211 197 192 207 213 212 200 194 184 179 179 177 183 190
42 65 161 220 177 157 16 24 29 45 301 215 152 297 317 203 205 201 206 216 227 238 248 256 238 237 233 232 229 228 227 230 231 232 227 223 204 197 203 206 204 210 205 197 194 194 194 199 205
85 120 211 210 166 117 39 18 3 33 336 274 274 316 319 230 213 215 217 223 229 236 245 256 253 248 241 238 234 233 234 233 237 239 232 227 224 219 217 211 208 208 211 207 208 208 207 212 216
175 194 207 209 169 350 349 345 335 52 311 267 272 341 306 247 229 230 237 240 248 249 245 251 250 247 249 246 241 239 237 240 239 239 237 233 229 227 225 222 222 215 215 211 214 217 218 221 225
200 270 237 153 147 313 301 290 276 257 255 277 272 305 295 270 254 258 251 251 251 251 251 251 248 247 251 253 248 247 245 244 246 244 242 238 237 233 229 228 228 226 225 218 221 225 227 231 236
200 254 268 270 282 283 232 262 260 257 265 268 280 289 296 282 275 268 265 259 252 253 257 254 252 249 251 256 254 250 249 248 250 250 247 245 241 241 237 233 230 230 231 230 230 231 233 235 241
228 278 290 292 281 275 247 258 211 270 275 251 278 281 289 286 279 270 266 264 258 259 260 258 256 252 252 255 257 256 254 252 253 251 250 249 248 244 242 237 234 231 233 233 234 236 240 243 246
193 294 305 279 273 275 277 278 230 274 278 278 285 294 292 292 279 267 274 272 268 270 269 262 262 257 256 256 258 257 259 256 255 255 253 251 250 248 243 240 239 236 236 236 236 236 238 240 243
165 54 234 283 255 256 183 259 281 292 294 292 291 289 290 291 286 281 282 272 268 268 270 271 264 260 259 258 257 256 261 259 259 256 256 255 252 248 245 243 243 241 239 241 238 239 241 244 245
209 216 200 290 269 280 191 273 289 305 310 302 299 299 293 290 289 287 293 291 284 275 270 271 268 263 263 258 257 256 256 262 260 258 255 255 255 251 247 248 248 244 243 243 241 241 242 245 247
221 231 268 191 295 271 280 271 280 292 294 291 292 291 292 286 284 286 284 283 284 280 276 274 268 266 263 259 255 255 254 255 258 256 254 253 255 253 250 250 251 247 246 245 241 242 242 246 247
131 186 210 216 238 256 256 276 277 285 293 291 289 290 291 291 290 286 284 281 279 275 270 270 269 264 262 255 252 251 252 255 254 257 255 253 253 253 251 251 252 249 247 247 246 245 243 244 244
230 237 219 245 211 235 273 275 275 253 259 277 281 282 284 293 292 292 291 287 282 284 274 264 260 263 262 260 257 256 257 256 257 257 260 258 256 252 250 251 252 252 250 249 246 243 244 244 242
216 228 195 227 25 265 288 278 265 266 254 269 278 283 284 287 293 299 299 292 291 295 286 276 261 258 263 265 263 255 253 252 253 256 252 261 258 254 252 252 251 253 251 251 251 248 245 245 244
237 196 192 216 195 255 161 286 161 261 274 252 277 286 293 300 308 311 309 299 300 301 290 293 284 269 263 264 262 260 256 255 259 259 258 257 270 260 255 253 253 253 254 253 254 252 248 246 247
220 158 175 184 210 281 242 271 219 194 277 273 276 292 302 317 320 320 324 315 300 292 292 301 296 280 268 263 263 261 260 259 261 260 260 261 259 268 262 257 255 254 254 254 254 254 251 248 246
137 100 59 101 208 247 244 201 280 253 230 292 289 298 315 329 348 0 354 339 304 293 294 290 288 282 279 272 267 263 262 263 261 259 260 262 262 263 269 263 259 256 255 256 255 255 255 253 251
167 115 271 307 213 238 149 189 245 294 278 248 274 304 331 21 16 23 19 15 10 346 321 312 304 291 288 284 276 270 268 266 265 264 264 264 264 265 266 268 266 262 260 258 257 256 256 255 254
205 200 217 204 210 238 142 225 251 247 266 288 298 322 24 14 11 9 6 6 9 16 14 9 9 355 325 303 292 284 277 271 269 267 266 266 267 270 272 271 271 272 273 265 261 259 258 257 257
188 200 219 306 139 8 226 279 285 270 277 298 63 21 21 15 12 4 1 4 2 7 7 7 7 13 7 339 308 298 293 286 278 275 274 272 271 271 272 272 273 272 272 274 268 263 262 259 258
172 152 138 179 235 243 240 250 242 271 86 133 4 14 8 4 7 6 357 358 5 10 8 349 350 358 353 347 337 329 310 295 288 284 278 276 277 275 270 270 274 276 274 269 269 266 264 260 260
191 208 196 137 170 189 230 251 211 251 215 177 85 6 10 14 2 2 13 12 8 4 4 2 359 354 341 337 333 330 321 319 299 286 286 283 282 281 277 273 274 275 274 273 267 267 267 263 261
217 220 209 217 217 234 282 266 139 152 147 103 4 22 43 19 8 0 358 5 6 5 3 2 1 357 352 347 338 339 326 315 313 309 296 290 286 285 281 277 275 274 274 272 270 270 270 264 262